Location: Home
(42.5358°N, 72.7383°W)
Time: 09:33:09
(UTC-05:00)

S-56A Canister/Altair - Pass Details

Date: 07 December 2021
Orbit: 634 x 2499 km, 38.9° (Epoch: 22 January)

Event Time Altitude Azimuth Distance (km) Brightness Sun altitude
Rises 02:32:42 0° 275° (W) 4,547 - -49.6°
Reaches altitude 10° 02:36:18 10° 271° (W) 3,260 - -48.9°
Maximum altitude 02:43:37 52° 198° (SSW) 1,154 - -47.6°
Drops below altitude 10° 02:48:43 10° 123° (ESE) 2,287 - -46.7°
Exits shadow 02:50:32 - 118° (ESE) 2,962 11.0 -46.4°
Sets 02:50:52 0° 118° (ESE) 3,090 11.1 -46.3°
